ARIRANG-2 (KOMPSAT-2)

Last updated on Sun Jun 15 2025 00:02:28 GMT+0000 (Coordinated Universal Time)

1 29268U 06031A 25165.57556219 .00000324 00000+0 69842-4 0 9997 2 29268 97.8367 2.8059 0015073 154.6749 290.3536 14.64304833 7679
UTC large
Height (km)
Speed (km/s)
/
Latitude / Longitude
Inclination (degrees)
Orbital Period (minutes)
Azimuth
Elevation
Range (km)
Doppler Factor

Next 0 passes for location: London (51.5072 / 0.1276)

Sorry there are no passes over London.